Location: Caltech
(34.1382°N, 118.1253°W)
Time: 02:44:05
(UTC-07:00)

NOSS 3-2 (A) - Visible Passes

Search period start: 20 October 2014 00:00
Search period end: 30 October 2014 00:00
Orbit: 941 x 1267 km, 63.4° (Epoch: 18 October)

Date Brightness Start Highest point End Pass type
(mag) Time Alt. Az. Time Alt. Az. Time Alt. Az.
20 Oct 5.8 04:46:17 13° SSW 04:46:17 13° SSW 04:47:09 10° S visible
20 Oct 6.1 20:17:25 10° WNW 20:19:53 12° NW 20:22:25 10° NNW visible
21 Oct 5.8 19:29:32 10° W 19:33:53 19° NW 19:38:25 10° N visible
22 Oct 5.3 18:42:42 10° WSW 18:48:05 29° NW 18:53:46 10° NNE visible
24 Oct 5.9 19:05:38 10° WNW 19:09:07 15° NW 19:12:45 10° N visible
27 Oct 6.0 18:42:13 10° NW 18:44:26 12° NNW 18:46:43 10° NNW visible
